Simultaneous Nadir Overpasses (SNOs) Predictions

Prediction of SNOs between NOAA-15 and METOP-C Satellite Orbit:

Table of predicted SNOs for the next 14.0 days since TLE Epoch: 2/13/2025
Index Date (NOAA-15) Time (NOAA-15) Lat,Lon (NOAA-15) SZA (NOAA-15 ) Date (METOP-C) Time (METOP-C) Lat,Lon (METOP-C) SZA (METOP-C ) Distance(km) Time Diff (sec)
1 02/25/2025 21:00:58 -81.04, 81.82 88.77 02/25/2025 20:59:46 -81.02, 81.98 88.79 3.41 72
2 02/25/2025 21:51:24 81.02,-110.44 91.24 02/25/2025 21:50:26 81.02,-110.56 91.22 2.22 58
3 02/25/2025 22:41:56 -81.02, 56.79 88.78 02/25/2025 22:41:07 -81.03, 56.83 88.79 0.75 49
4 02/25/2025 23:32:23 81.02,-135.83 91.21 02/25/2025 23:31:47 81.03,-135.71 91.21 2.19 36
5 02/26/2025 00:22:55 -81.03, 31.40 88.81 02/26/2025 00:22:29 -81.02, 31.32 88.84 2.05 26
6 02/26/2025 01:13:22 81.03,-161.21 91.18 02/26/2025 01:13:09 81.03,-161.23 91.17 0.83 13
7 02/26/2025 02:03:54 -81.04, 6.01 88.85 02/26/2025 02:03:50 -81.03, 6.17 88.84 2.95 4
8 02/26/2025 02:54:20 81.02, 173.77 91.16 02/26/2025 02:54:30 81.03, 173.62 91.16 2.87 10
9 02/26/2025 03:44:52 -81.03, -19.01 88.86 02/26/2025 03:45:11 -81.04, -18.98 88.85 0.98 19
10 02/26/2025 04:35:19 81.03, 148.38 91.13 02/26/2025 04:35:51 81.04, 148.47 91.16 2.17 32
11 02/26/2025 05:25:51 -81.04, -44.40 88.90 02/26/2025 05:26:33 -81.03, -44.50 88.90 1.89 42
12 02/26/2025 06:16:18 81.04, 123.00 91.10 02/26/2025 06:17:13 81.03, 122.95 91.11 0.74 55
13 02/26/2025 07:06:50 -81.04, -69.79 88.93 02/26/2025 07:07:54 -81.04, -69.65 88.90 2.56 64



Historial Predications of SNOs between NOAA-15 and METOP-C
